contact:dominique.lefevre@mio.osupytheas.fr, maurice.libes@osupytheas.fr, didier.mallarino@osupytheas.fr
Project:EMSO http://www.emso-fr.org/EMSO-France
Depth: 2436.0 m
Title:EMSO Ligure Ouest : Data MII capteur MICROCAT
DateTime_Computer,Latitude,Longitude,Temperature,Conductivity,Pressure,DateTime_Instrument
DateTime_Computer,Latitude,Longitude,degC,S m-1,dbar,DateTime_Instrument
2022-10-26T00:02:48Z,42.805,6.029,13.3029,4.60082,2470.591,2022-10-26T02:04:44Z
2022-10-26T00:05:51Z,42.805,6.029,13.3030,4.60090,2470.591,2022-10-26T02:07:47Z
2022-10-26T00:08:54Z,42.805,6.029,13.3027,4.60086,2470.553,2022-10-26T02:10:50Z
2022-10-26T00:11:57Z,42.805,6.029,13.3019,4.60069,2470.553,2022-10-26T02:13:53Z
2022-10-26T00:15:00Z,42.805,6.029,13.3025,4.60065,2470.591,2022-10-26T02:16:56Z
2022-10-26T00:18:03Z,42.805,6.029,13.3026,4.60074,2470.577,2022-10-26T02:19:59Z
2022-10-26T00:21:06Z,42.805,6.029,13.3019,4.60078,2470.53,2022-10-26T02:23:03Z
2022-10-26T00:24:09Z,42.805,6.029,13.3028,4.60093,2470.553,2022-10-26T02:26:06Z
2022-10-26T00:27:12Z,42.805,6.029,13.3021,4.60087,2470.53,2022-10-26T02:29:09Z
2022-10-26T00:30:16Z,42.805,6.029,13.3033,4.60098,2470.553,2022-10-26T02:32:12Z
2022-10-26T00:33:19Z,42.805,6.029,13.3021,4.60086,2470.553,2022-10-26T02:35:15Z
2022-10-26T00:36:22Z,42.805,6.029,13.3029,4.60070,2470.544,2022-10-26T02:38:18Z
2022-10-26T00:39:25Z,42.805,6.029,13.3022,4.60092,2470.544,2022-10-26T02:41:21Z
2022-10-26T00:42:28Z,42.805,6.029,13.3018,4.60088,2470.52,2022-10-26T02:44:24Z
2022-10-26T00:45:31Z,42.805,6.029,13.3022,4.60084,2470.577,2022-10-26T02:47:27Z
2022-10-26T00:48:34Z,42.805,6.029,13.3024,4.60092,2470.553,2022-10-26T02:50:30Z
2022-10-26T00:51:37Z,42.805,6.029,13.3019,4.60081,2470.591,2022-10-26T02:53:33Z
2022-10-26T00:54:40Z,42.805,6.029,13.3021,4.60088,2470.577,2022-10-26T02:56:36Z
2022-10-26T00:57:43Z,42.805,6.029,13.3024,4.60071,2470.553,2022-10-26T02:59:39Z
2022-10-26T01:00:46Z,42.805,6.029,13.3023,4.60085,2470.591,2022-10-26T03:02:43Z
2022-10-26T01:03:49Z,42.805,6.029,13.3021,4.60064,2470.567,2022-10-26T03:05:46Z
2022-10-26T01:06:52Z,42.805,6.029,13.3021,4.60082,2470.553,2022-10-26T03:08:49Z
2022-10-26T01:09:56Z,42.805,6.029,13.3024,4.60073,2470.553,2022-10-26T03:11:52Z
2022-10-26T01:12:59Z,42.805,6.029,13.3025,4.60087,2470.577,2022-10-26T03:14:55Z
2022-10-26T01:16:02Z,42.805,6.029,13.3023,4.60079,2470.553,2022-10-26T03:17:58Z
2022-10-26T01:19:05Z,42.805,6.029,13.3016,4.60064,2470.567,2022-10-26T03:21:01Z
2022-10-26T01:22:08Z,42.805,6.029,13.3012,4.60057,2470.544,2022-10-26T03:24:04Z
2022-10-26T01:25:11Z,42.805,6.029,13.3021,4.60077,2470.53,2022-10-26T03:27:07Z
2022-10-26T01:28:14Z,42.805,6.029,13.3026,4.60067,2470.544,2022-10-26T03:30:10Z
2022-10-26T01:31:17Z,42.805,6.029,13.3019,4.60076,2470.544,2022-10-26T03:33:13Z
2022-10-26T01:34:20Z,42.805,6.029,13.3016,4.60067,2470.53,2022-10-26T03:36:16Z
2022-10-26T01:37:23Z,42.805,6.029,13.3034,4.60069,2470.544,2022-10-26T03:39:19Z
2022-10-26T01:40:26Z,42.805,6.029,13.3029,4.60075,2470.52,2022-10-26T03:42:23Z
2022-10-26T01:43:29Z,42.805,6.029,13.3021,4.60064,2470.544,2022-10-26T03:45:26Z
2022-10-26T01:46:33Z,42.805,6.029,13.3018,4.60058,2470.53,2022-10-26T03:48:29Z
2022-10-26T01:49:36Z,42.805,6.029,13.3026,4.60072,2470.544,2022-10-26T03:51:32Z
2022-10-26T01:52:39Z,42.805,6.029,13.3024,4.60065,2470.53,2022-10-26T03:54:35Z
2022-10-26T01:55:42Z,42.805,6.029,13.3020,4.60062,2470.53,2022-10-26T03:57:38Z
2022-10-26T01:58:45Z,42.805,6.029,13.3013,4.60057,2470.53,2022-10-26T04:00:41Z
2022-10-26T02:01:48Z,42.805,6.029,13.3022,4.60070,2470.53,2022-10-26T04:03:44Z
2022-10-26T02:04:51Z,42.805,6.029,13.3020,4.60067,2470.553,2022-10-26T04:06:47Z
2022-10-26T02:07:54Z,42.805,6.029,13.3013,4.60054,2470.53,2022-10-26T04:09:50Z
2022-10-26T02:10:57Z,42.805,6.029,13.3014,4.60054,2470.567,2022-10-26T04:12:53Z
2022-10-26T02:14:00Z,42.805,6.029,13.3014,4.60062,2470.553,2022-10-26T04:15:56Z
2022-10-26T02:17:03Z,42.805,6.029,13.3023,4.60057,2470.544,2022-10-26T04:19:00Z
2022-10-26T02:20:06Z,42.805,6.029,13.3019,4.60067,2470.507,2022-10-26T04:22:03Z
2022-10-26T02:23:09Z,42.805,6.029,13.3029,4.60057,2470.544,2022-10-26T04:25:06Z
2022-10-26T02:26:12Z,42.805,6.029,13.3025,4.60089,2470.53,2022-10-26T04:28:09Z
2022-10-26T02:29:16Z,42.805,6.029,13.3015,4.60066,2470.52,2022-10-26T04:31:12Z
2022-10-26T02:32:19Z,42.805,6.029,13.3013,4.60057,2470.544,2022-10-26T04:34:15Z
2022-10-26T02:35:22Z,42.805,6.029,13.3029,4.60072,2470.53,2022-10-26T04:37:18Z
2022-10-26T02:38:25Z,42.805,6.029,13.3011,4.60055,2470.516,2022-10-26T04:40:21Z
2022-10-26T02:41:28Z,42.805,6.029,13.3010,4.60068,2470.53,2022-10-26T04:43:24Z
2022-10-26T02:44:31Z,42.805,6.029,13.3017,4.60058,2470.553,2022-10-26T04:46:27Z
2022-10-26T02:47:34Z,42.805,6.029,13.3014,4.60054,2470.567,2022-10-26T04:49:30Z
2022-10-26T02:50:37Z,42.805,6.029,13.3023,4.60056,2470.567,2022-10-26T04:52:33Z
2022-10-26T02:53:40Z,42.805,6.029,13.3014,4.60055,2470.553,2022-10-26T04:55:36Z
2022-10-26T02:56:43Z,42.805,6.029,13.3021,4.60064,2470.553,2022-10-26T04:58:40Z
2022-10-26T02:59:46Z,42.805,6.029,13.3014,4.60056,2470.553,2022-10-26T05:01:43Z
2022-10-26T03:02:49Z,42.805,6.029,13.3011,4.60059,2470.591,2022-10-26T05:04:46Z
2022-10-26T03:05:53Z,42.805,6.029,13.3024,4.60068,2470.553,2022-10-26T05:07:49Z
2022-10-26T03:08:56Z,42.805,6.029,13.3016,4.60061,2470.53,2022-10-26T05:10:52Z
2022-10-26T03:11:59Z,42.805,6.029,13.3012,4.60054,2470.553,2022-10-26T05:13:55Z
2022-10-26T03:15:02Z,42.805,6.029,13.3010,4.60053,2470.553,2022-10-26T05:16:58Z
2022-10-26T03:18:05Z,42.805,6.029,13.3014,4.60054,2470.567,2022-10-26T05:20:01Z
2022-10-26T03:21:08Z,42.805,6.029,13.3012,4.60056,2470.553,2022-10-26T05:23:04Z
2022-10-26T03:24:11Z,42.805,6.029,13.3015,4.60054,2470.577,2022-10-26T05:26:07Z
2022-10-26T03:27:14Z,42.805,6.029,13.3015,4.60055,2470.553,2022-10-26T05:29:10Z
2022-10-26T03:30:17Z,42.805,6.029,13.3011,4.60054,2470.577,2022-10-26T05:32:13Z
2022-10-26T03:33:20Z,42.805,6.029,13.3011,4.60054,2470.553,2022-10-26T05:35:16Z
2022-10-26T03:36:23Z,42.805,6.029,13.3015,4.60054,2470.577,2022-10-26T05:38:20Z
2022-10-26T03:39:26Z,42.805,6.029,13.3011,4.60062,2470.577,2022-10-26T05:41:23Z
2022-10-26T03:42:29Z,42.805,6.029,13.3018,4.60064,2470.6,2022-10-26T05:44:26Z
2022-10-26T03:45:33Z,42.805,6.029,13.3023,4.60067,2470.614,2022-10-26T05:47:29Z
2022-10-26T03:48:36Z,42.805,6.029,13.3026,4.60066,2470.6,2022-10-26T05:50:32Z
2022-10-26T03:51:39Z,42.805,6.029,13.3025,4.60064,2470.6,2022-10-26T05:53:35Z
2022-10-26T03:54:42Z,42.805,6.029,13.3011,4.60055,2470.6,2022-10-26T05:56:38Z
2022-10-26T03:57:45Z,42.805,6.029,13.3012,4.60053,2470.577,2022-10-26T05:59:41Z
2022-10-26T04:00:48Z,42.805,6.029,13.3011,4.60056,2470.586,2022-10-26T06:02:44Z
2022-10-26T04:03:51Z,42.805,6.029,13.3011,4.60054,2470.637,2022-10-26T06:05:47Z
2022-10-26T04:06:54Z,42.805,6.029,13.3013,4.60055,2470.586,2022-10-26T06:08:50Z
2022-10-26T04:09:57Z,42.805,6.029,13.3010,4.60055,2470.6,2022-10-26T06:11:53Z
2022-10-26T04:13:00Z,42.805,6.029,13.3016,4.60054,2470.6,2022-10-26T06:14:57Z
2022-10-26T04:16:03Z,42.805,6.029,13.3013,4.60053,2470.624,2022-10-26T06:18:00Z
2022-10-26T04:19:06Z,42.805,6.029,13.3014,4.60054,2470.637,2022-10-26T06:21:03Z
2022-10-26T04:22:09Z,42.805,6.029,13.3014,4.60054,2470.624,2022-10-26T06:24:06Z
2022-10-26T04:25:13Z,42.805,6.029,13.3014,4.60054,2470.624,2022-10-26T06:27:09Z
2022-10-26T04:28:16Z,42.805,6.029,13.3008,4.60054,2470.637,2022-10-26T06:30:12Z
2022-10-26T04:31:19Z,42.805,6.029,13.3012,4.60054,2470.624,2022-10-26T06:33:15Z
2022-10-26T04:34:22Z,42.805,6.029,13.3011,4.60054,2470.646,2022-10-26T06:36:18Z
2022-10-26T04:37:25Z,42.805,6.029,13.3008,4.60054,2470.624,2022-10-26T06:39:21Z
2022-10-26T04:40:28Z,42.805,6.029,13.3012,4.60054,2470.684,2022-10-26T06:42:24Z
2022-10-26T04:43:31Z,42.805,6.029,13.3015,4.60054,2470.624,2022-10-26T06:45:27Z
2022-10-26T04:46:34Z,42.805,6.029,13.3014,4.60055,2470.693,2022-10-26T06:48:30Z
2022-10-26T04:49:37Z,42.805,6.029,13.3007,4.60054,2470.67,2022-10-26T06:51:33Z
2022-10-26T04:52:40Z,42.805,6.029,13.3011,4.60054,2470.661,2022-10-26T06:54:37Z
2022-10-26T04:55:43Z,42.805,6.029,13.3009,4.60054,2470.693,2022-10-26T06:57:40Z
2022-10-26T04:58:46Z,42.805,6.029,13.3012,4.60057,2470.684,2022-10-26T07:00:43Z
2022-10-26T05:01:50Z,42.805,6.029,13.3014,4.60053,2470.67,2022-10-26T07:03:46Z
2022-10-26T05:04:53Z,42.805,6.029,13.3009,4.60054,2470.707,2022-10-26T07:06:49Z
2022-10-26T05:07:56Z,42.805,6.029,13.3020,4.60057,2470.67,2022-10-26T07:09:52Z
2022-10-26T05:10:59Z,42.805,6.029,13.3010,4.60053,2470.707,2022-10-26T07:12:55Z
2022-10-26T05:14:02Z,42.805,6.029,13.3017,4.60064,2470.693,2022-10-26T07:15:58Z
2022-10-26T05:17:05Z,42.805,6.029,13.3012,4.60054,2470.693,2022-10-26T07:19:01Z
2022-10-26T05:20:08Z,42.805,6.029,13.3015,4.60054,2470.67,2022-10-26T07:22:04Z
2022-10-26T05:23:11Z,42.805,6.029,13.3013,4.60056,2470.707,2022-10-26T07:25:07Z
2022-10-26T05:26:14Z,42.805,6.029,13.3013,4.60054,2470.693,2022-10-26T07:28:10Z
2022-10-26T05:29:17Z,42.805,6.029,13.3010,4.60054,2470.693,2022-10-26T07:31:14Z
2022-10-26T05:32:20Z,42.805,6.029,13.3013,4.60055,2470.717,2022-10-26T07:34:17Z
2022-10-26T05:35:23Z,42.805,6.029,13.3016,4.60054,2470.717,2022-10-26T07:37:20Z
2022-10-26T05:38:26Z,42.805,6.029,13.3015,4.60057,2470.707,2022-10-26T07:40:23Z
2022-10-26T05:41:30Z,42.805,6.029,13.3011,4.60056,2470.717,2022-10-26T07:43:26Z
2022-10-26T05:44:33Z,42.805,6.029,13.3013,4.60057,2470.74,2022-10-26T07:46:29Z
2022-10-26T05:47:36Z,42.805,6.029,13.3012,4.60054,2470.73,2022-10-26T07:49:32Z
2022-10-26T05:50:39Z,42.805,6.029,13.3014,4.60055,2470.74,2022-10-26T07:52:35Z
2022-10-26T05:53:42Z,42.805,6.029,13.3014,4.60055,2470.717,2022-10-26T07:55:38Z
2022-10-26T05:56:45Z,42.805,6.029,13.3018,4.60055,2470.717,2022-10-26T07:58:41Z
2022-10-26T05:59:48Z,42.805,6.029,13.3016,4.60061,2470.763,2022-10-26T08:01:44Z
2022-10-26T06:02:51Z,42.805,6.029,13.3021,4.60064,2470.74,2022-10-26T08:04:47Z
2022-10-26T06:05:54Z,42.805,6.029,13.3021,4.60066,2470.74,2022-10-26T08:07:50Z
2022-10-26T06:08:57Z,42.805,6.029,13.3019,4.60063,2470.73,2022-10-26T08:10:54Z
2022-10-26T06:12:00Z,42.805,6.029,13.3025,4.60068,2470.74,2022-10-26T08:13:57Z
2022-10-26T06:15:03Z,42.805,6.029,13.3015,4.60064,2470.74,2022-10-26T08:17:00Z
2022-10-26T06:18:06Z,42.805,6.029,13.3019,4.60063,2470.74,2022-10-26T08:20:03Z
2022-10-26T06:21:10Z,42.805,6.029,13.3024,4.60067,2470.754,2022-10-26T08:23:06Z
2022-10-26T06:24:13Z,42.805,6.029,13.3028,4.60062,2470.787,2022-10-26T08:26:09Z
2022-10-26T06:27:16Z,42.805,6.029,13.3013,4.60056,2470.8,2022-10-26T08:29:12Z
2022-10-26T06:30:19Z,42.805,6.029,13.3014,4.60061,2470.8,2022-10-26T08:32:15Z
2022-10-26T06:33:22Z,42.805,6.029,13.3020,4.60059,2470.74,2022-10-26T08:35:18Z
2022-10-26T06:36:25Z,42.805,6.029,13.3021,4.60069,2470.777,2022-10-26T08:38:21Z
2022-10-26T06:39:28Z,42.805,6.029,13.3012,4.60059,2470.763,2022-10-26T08:41:24Z
2022-10-26T06:42:31Z,42.805,6.029,13.3024,4.60067,2470.763,2022-10-26T08:44:27Z
2022-10-26T06:45:34Z,42.805,6.029,13.3015,4.60056,2470.8,2022-10-26T08:47:30Z
2022-10-26T06:48:37Z,42.805,6.029,13.3015,4.60062,2470.8,2022-10-26T08:50:33Z
2022-10-26T06:51:40Z,42.805,6.029,13.3026,4.60081,2470.763,2022-10-26T08:53:37Z
2022-10-26T06:54:43Z,42.805,6.029,13.3024,4.60067,2470.787,2022-10-26T08:56:40Z
2022-10-26T06:57:46Z,42.805,6.029,13.3019,4.60074,2470.787,2022-10-26T08:59:43Z
2022-10-26T07:00:50Z,42.805,6.029,13.3026,4.60067,2470.787,2022-10-26T09:02:46Z
2022-10-26T07:03:53Z,42.805,6.029,13.3024,4.60069,2470.777,2022-10-26T09:05:49Z
2022-10-26T07:06:56Z,42.805,6.029,13.3021,4.60083,2470.763,2022-10-26T09:08:52Z
2022-10-26T07:09:59Z,42.805,6.029,13.3026,4.60057,2470.763,2022-10-26T09:11:55Z
2022-10-26T07:13:02Z,42.805,6.029,13.3023,4.60065,2470.8,2022-10-26T09:14:58Z
2022-10-26T07:16:05Z,42.805,6.029,13.3019,4.60069,2470.787,2022-10-26T09:18:01Z
2022-10-26T07:19:08Z,42.805,6.029,13.3023,4.60066,2470.8,2022-10-26T09:21:04Z
2022-10-26T07:22:11Z,42.805,6.029,13.3020,4.60065,2470.787,2022-10-26T09:24:07Z
2022-10-26T07:25:14Z,42.805,6.029,13.3021,4.60070,2470.787,2022-10-26T09:27:10Z
2022-10-26T07:28:17Z,42.805,6.029,13.3027,4.60082,2470.777,2022-10-26T09:30:13Z
2022-10-26T07:31:20Z,42.805,6.029,13.3028,4.60064,2470.81,2022-10-26T09:33:17Z
2022-10-26T07:34:23Z,42.805,6.029,13.3033,4.60069,2470.81,2022-10-26T09:36:20Z
2022-10-26T07:37:26Z,42.805,6.029,13.3018,4.60064,2470.81,2022-10-26T09:39:23Z
2022-10-26T07:40:30Z,42.805,6.029,13.3021,4.60074,2470.8,2022-10-26T09:42:26Z
2022-10-26T07:43:33Z,42.805,6.029,13.3026,4.60076,2470.787,2022-10-26T09:45:29Z
2022-10-26T07:46:36Z,42.805,6.029,13.3026,4.60070,2470.81,2022-10-26T09:48:32Z
2022-10-26T07:49:39Z,42.805,6.029,13.3024,4.60076,2470.787,2022-10-26T09:51:35Z
2022-10-26T07:52:42Z,42.805,6.029,13.3033,4.60079,2470.787,2022-10-26T09:54:38Z
2022-10-26T07:55:45Z,42.805,6.029,13.3021,4.60067,2470.787,2022-10-26T09:57:41Z
2022-10-26T07:58:48Z,42.805,6.029,13.3026,4.60069,2470.8,2022-10-26T10:00:44Z
2022-10-26T08:01:51Z,42.805,6.029,13.3024,4.60072,2470.8,2022-10-26T10:03:47Z
2022-10-26T08:04:54Z,42.805,6.029,13.3024,4.60072,2470.8,2022-10-26T10:06:50Z
2022-10-26T08:07:57Z,42.805,6.029,13.3024,4.60074,2470.777,2022-10-26T10:09:54Z
2022-10-26T08:11:00Z,42.805,6.029,13.3021,4.60069,2470.824,2022-10-26T10:12:57Z
2022-10-26T08:14:03Z,42.805,6.029,13.3019,4.60067,2470.787,2022-10-26T10:16:00Z
2022-10-26T08:17:06Z,42.805,6.029,13.3019,4.60057,2470.787,2022-10-26T10:19:03Z
2022-10-26T08:20:10Z,42.805,6.029,13.3015,4.60057,2470.787,2022-10-26T10:22:06Z
2022-10-26T08:23:13Z,42.805,6.029,13.3016,4.60062,2470.824,2022-10-26T10:25:09Z
2022-10-26T08:26:16Z,42.805,6.029,13.3029,4.60067,2470.787,2022-10-26T10:28:12Z
2022-10-26T08:29:19Z,42.805,6.029,13.3017,4.60069,2470.824,2022-10-26T10:31:15Z
2022-10-26T08:32:22Z,42.805,6.029,13.3019,4.60069,2470.777,2022-10-26T10:34:18Z
2022-10-26T08:35:25Z,42.805,6.029,13.3019,4.60074,2470.8,2022-10-26T10:37:21Z
2022-10-26T08:38:28Z,42.805,6.029,13.3021,4.60070,2470.787,2022-10-26T10:40:24Z
2022-10-26T08:41:31Z,42.805,6.029,13.3019,4.60062,2470.787,2022-10-26T10:43:27Z
2022-10-26T08:44:34Z,42.805,6.029,13.3022,4.60071,2470.777,2022-10-26T10:46:31Z
2022-10-26T08:47:37Z,42.805,6.029,13.3031,4.60069,2470.787,2022-10-26T10:49:34Z
2022-10-26T08:50:40Z,42.805,6.029,13.3015,4.60064,2470.8,2022-10-26T10:52:37Z
2022-10-26T08:53:43Z,42.805,6.029,13.3021,4.60060,2470.777,2022-10-26T10:55:40Z
2022-10-26T08:56:47Z,42.805,6.029,13.3031,4.60062,2470.763,2022-10-26T10:58:43Z
2022-10-26T08:59:50Z,42.805,6.029,13.3022,4.60069,2470.74,2022-10-26T11:01:46Z
2022-10-26T09:02:53Z,42.805,6.029,13.3030,4.60075,2470.763,2022-10-26T11:04:49Z
2022-10-26T09:05:56Z,42.805,6.029,13.3024,4.60065,2470.787,2022-10-26T11:07:52Z
2022-10-26T09:08:59Z,42.805,6.029,13.3017,4.60059,2470.763,2022-10-26T11:10:55Z
2022-10-26T09:12:02Z,42.805,6.029,13.3026,4.60070,2470.8,2022-10-26T11:13:58Z
2022-10-26T09:15:05Z,42.805,6.029,13.3026,4.60067,2470.754,2022-10-26T11:17:01Z
2022-10-26T09:18:08Z,42.805,6.029,13.3024,4.60071,2470.754,2022-10-26T11:20:04Z
2022-10-26T09:21:11Z,42.805,6.029,13.3021,4.60079,2470.777,2022-10-26T11:23:08Z
2022-10-26T09:24:14Z,42.805,6.029,13.3029,4.60079,2470.763,2022-10-26T11:26:11Z
2022-10-26T09:27:17Z,42.805,6.029,13.3024,4.60073,2470.74,2022-10-26T11:29:14Z
2022-10-26T09:30:21Z,42.805,6.029,13.3022,4.60088,2470.763,2022-10-26T11:32:17Z
2022-10-26T09:33:24Z,42.805,6.029,13.3028,4.60080,2470.73,2022-10-26T11:35:20Z
2022-10-26T09:36:27Z,42.805,6.029,13.3019,4.60069,2470.74,2022-10-26T11:38:23Z
2022-10-26T09:39:30Z,42.805,6.029,13.3029,4.60075,2470.707,2022-10-26T11:41:26Z
2022-10-26T09:42:33Z,42.805,6.029,13.3026,4.60067,2470.74,2022-10-26T11:44:29Z
2022-10-26T09:45:36Z,42.805,6.029,13.3015,4.60081,2470.73,2022-10-26T11:47:32Z
2022-10-26T09:48:39Z,42.805,6.029,13.3022,4.60081,2470.754,2022-10-26T11:50:35Z
2022-10-26T09:51:42Z,42.805,6.029,13.3026,4.60074,2470.754,2022-10-26T11:53:38Z
2022-10-26T09:54:45Z,42.805,6.029,13.3024,4.60090,2470.754,2022-10-26T11:56:41Z
2022-10-26T09:57:48Z,42.805,6.029,13.3024,4.60080,2470.73,2022-10-26T11:59:45Z
2022-10-26T10:00:51Z,42.805,6.029,13.3023,4.60079,2470.754,2022-10-26T12:02:48Z
2022-10-26T10:03:54Z,42.805,6.029,13.3029,4.60079,2470.754,2022-10-26T12:05:51Z
2022-10-26T10:06:58Z,42.805,6.029,13.3013,4.60070,2470.74,2022-10-26T12:08:54Z
2022-10-26T10:10:01Z,42.805,6.029,13.3020,4.60080,2470.73,2022-10-26T12:11:57Z
2022-10-26T10:13:04Z,42.805,6.029,13.3025,4.60079,2470.74,2022-10-26T12:15:00Z
2022-10-26T10:16:07Z,42.805,6.029,13.3026,4.60077,2470.754,2022-10-26T12:18:03Z
2022-10-26T10:19:10Z,42.805,6.029,13.3021,4.60087,2470.754,2022-10-26T12:21:06Z
2022-10-26T10:22:13Z,42.805,6.029,13.3029,4.60082,2470.693,2022-10-26T12:24:09Z
2022-10-26T10:25:16Z,42.805,6.029,13.3023,4.60092,2470.693,2022-10-26T12:27:12Z
2022-10-26T10:28:19Z,42.805,6.029,13.3021,4.60088,2470.717,2022-10-26T12:30:15Z
2022-10-26T10:31:22Z,42.805,6.029,13.3024,4.60081,2470.693,2022-10-26T12:33:18Z
2022-10-26T10:34:25Z,42.805,6.029,13.3021,4.60087,2470.73,2022-10-26T12:36:22Z
2022-10-26T10:37:28Z,42.805,6.029,13.3026,4.60086,2470.693,2022-10-26T12:39:25Z
2022-10-26T10:40:31Z,42.805,6.029,13.3028,4.60079,2470.707,2022-10-26T12:42:28Z
2022-10-26T10:43:35Z,42.805,6.029,13.3026,4.60074,2470.693,2022-10-26T12:45:31Z
2022-10-26T10:46:38Z,42.805,6.029,13.3031,4.60081,2470.693,2022-10-26T12:48:34Z
2022-10-26T10:49:41Z,42.805,6.029,13.3019,4.60092,2470.693,2022-10-26T12:51:37Z
2022-10-26T10:52:44Z,42.805,6.029,13.3026,4.60081,2470.693,2022-10-26T12:54:40Z
2022-10-26T10:55:47Z,42.805,6.029,13.3019,4.60078,2470.67,2022-10-26T12:57:43Z
2022-10-26T10:58:50Z,42.805,6.029,13.3025,4.60078,2470.693,2022-10-26T13:00:46Z
2022-10-26T11:01:53Z,42.805,6.029,13.3031,4.60081,2470.707,2022-10-26T13:03:49Z
2022-10-26T11:04:56Z,42.805,6.029,13.3022,4.60090,2470.67,2022-10-26T13:06:52Z
2022-10-26T11:07:59Z,42.805,6.029,13.3023,4.60079,2470.684,2022-10-26T13:09:55Z
2022-10-26T11:11:02Z,42.805,6.029,13.3020,4.60090,2470.707,2022-10-26T13:12:59Z
2022-10-26T11:14:05Z,42.805,6.029,13.3021,4.60069,2470.693,2022-10-26T13:16:02Z
2022-10-26T11:17:08Z,42.805,6.029,13.3024,4.60079,2470.67,2022-10-26T13:19:05Z
2022-10-26T11:20:12Z,42.805,6.029,13.3024,4.60090,2470.646,2022-10-26T13:22:08Z
2022-10-26T11:23:15Z,42.805,6.029,13.3021,4.60082,2470.707,2022-10-26T13:25:11Z
2022-10-26T11:26:18Z,42.805,6.029,13.3020,4.60073,2470.67,2022-10-26T13:28:14Z
2022-10-26T11:29:21Z,42.805,6.029,13.3014,4.60072,2470.646,2022-10-26T13:31:17Z
2022-10-26T11:32:24Z,42.805,6.029,13.3022,4.60077,2470.67,2022-10-26T13:34:20Z
2022-10-26T11:35:27Z,42.805,6.029,13.3019,4.60075,2470.67,2022-10-26T13:37:23Z
2022-10-26T11:38:30Z,42.805,6.029,13.3029,4.60088,2470.67,2022-10-26T13:40:26Z
2022-10-26T11:41:33Z,42.805,6.029,13.3024,4.60100,2470.633,2022-10-26T13:43:29Z
2022-10-26T11:44:36Z,42.805,6.029,13.3019,4.60082,2470.646,2022-10-26T13:46:32Z
2022-10-26T11:47:39Z,42.805,6.029,13.3023,4.60086,2470.67,2022-10-26T13:49:36Z
2022-10-26T11:50:42Z,42.805,6.029,13.3027,4.60084,2470.67,2022-10-26T13:52:39Z
2022-10-26T11:53:45Z,42.805,6.029,13.3020,4.60080,2470.646,2022-10-26T13:55:42Z
2022-10-26T11:56:49Z,42.805,6.029,13.3025,4.60073,2470.646,2022-10-26T13:58:45Z
2022-10-26T11:59:52Z,42.805,6.029,13.3020,4.60075,2470.637,2022-10-26T14:01:48Z
2022-10-26T12:02:55Z,42.805,6.029,13.3027,4.60085,2470.646,2022-10-26T14:04:51Z
2022-10-26T12:05:58Z,42.805,6.029,13.3024,4.60084,2470.637,2022-10-26T14:07:54Z
2022-10-26T12:09:01Z,42.805,6.029,13.3024,4.60091,2470.661,2022-10-26T14:10:57Z
2022-10-26T12:12:04Z,42.805,6.029,13.3025,4.60097,2470.646,2022-10-26T14:14:00Z
2022-10-26T12:15:07Z,42.805,6.029,13.3030,4.60089,2470.624,2022-10-26T14:17:03Z
2022-10-26T12:18:10Z,42.805,6.029,13.3026,4.60084,2470.646,2022-10-26T14:20:06Z
2022-10-26T12:21:13Z,42.805,6.029,13.3018,4.60077,2470.624,2022-10-26T14:23:09Z
2022-10-26T12:24:16Z,42.805,6.029,13.3018,4.60074,2470.67,2022-10-26T14:26:13Z
2022-10-26T12:27:19Z,42.805,6.029,13.3017,4.60078,2470.624,2022-10-26T14:29:16Z
2022-10-26T12:30:22Z,42.805,6.029,13.3022,4.60087,2470.646,2022-10-26T14:32:19Z
2022-10-26T12:33:25Z,42.805,6.029,13.3026,4.60079,2470.646,2022-10-26T14:35:22Z
2022-10-26T12:36:29Z,42.805,6.029,13.3021,4.60081,2470.661,2022-10-26T14:38:25Z
2022-10-26T12:39:32Z,42.805,6.029,13.3023,4.60089,2470.637,2022-10-26T14:41:28Z
2022-10-26T12:42:35Z,42.805,6.029,13.3019,4.60087,2470.591,2022-10-26T14:44:31Z
2022-10-26T12:45:38Z,42.805,6.029,13.3017,4.60079,2470.624,2022-10-26T14:47:34Z
2022-10-26T12:48:41Z,42.805,6.029,13.3019,4.60072,2470.577,2022-10-26T14:50:37Z
2022-10-26T12:51:44Z,42.805,6.029,13.3019,4.60079,2470.6,2022-10-26T14:53:40Z
2022-10-26T12:54:47Z,42.805,6.029,13.3019,4.60092,2470.637,2022-10-26T14:56:43Z
2022-10-26T12:57:50Z,42.805,6.029,13.3024,4.60081,2470.637,2022-10-26T14:59:46Z
2022-10-26T13:00:53Z,42.805,6.029,13.3023,4.60074,2470.624,2022-10-26T15:02:50Z
2022-10-26T13:03:56Z,42.805,6.029,13.3029,4.60086,2470.6,2022-10-26T15:05:53Z
2022-10-26T13:06:59Z,42.805,6.029,13.3021,4.60087,2470.614,2022-10-26T15:08:56Z
2022-10-26T13:10:03Z,42.805,6.029,13.3023,4.60087,2470.624,2022-10-26T15:11:59Z
2022-10-26T13:13:06Z,42.805,6.029,13.3021,4.60074,2470.6,2022-10-26T15:15:02Z
2022-10-26T13:16:09Z,42.805,6.029,13.3021,4.60074,2470.586,2022-10-26T15:18:05Z
2022-10-26T13:19:12Z,42.805,6.029,13.3024,4.60087,2470.6,2022-10-26T15:21:08Z
2022-10-26T13:22:15Z,42.805,6.029,13.3029,4.60087,2470.586,2022-10-26T15:24:11Z
2022-10-26T13:25:18Z,42.805,6.029,13.3025,4.60088,2470.614,2022-10-26T15:27:14Z
2022-10-26T13:28:21Z,42.805,6.029,13.3023,4.60091,2470.577,2022-10-26T15:30:17Z
2022-10-26T13:31:24Z,42.805,6.029,13.3023,4.60085,2470.614,2022-10-26T15:33:20Z
2022-10-26T13:34:27Z,42.805,6.029,13.3024,4.60082,2470.6,2022-10-26T15:36:23Z
2022-10-26T13:37:30Z,42.805,6.029,13.3029,4.60086,2470.6,2022-10-26T15:39:27Z
2022-10-26T13:40:33Z,42.805,6.029,13.3022,4.60074,2470.614,2022-10-26T15:42:30Z
2022-10-26T13:43:36Z,42.805,6.029,13.3023,4.60075,2470.637,2022-10-26T15:45:33Z
2022-10-26T13:46:39Z,42.805,6.029,13.3027,4.60084,2470.614,2022-10-26T15:48:36Z
2022-10-26T13:49:43Z,42.805,6.029,13.3019,4.60095,2470.614,2022-10-26T15:51:39Z
2022-10-26T13:52:46Z,42.805,6.029,13.3018,4.60094,2470.614,2022-10-26T15:54:42Z
2022-10-26T13:55:49Z,42.805,6.029,13.3018,4.60074,2470.614,2022-10-26T15:57:45Z
2022-10-26T13:58:52Z,42.805,6.029,13.3022,4.60081,2470.614,2022-10-26T16:00:48Z
2022-10-26T14:01:55Z,42.805,6.029,13.3021,4.60081,2470.6,2022-10-26T16:03:51Z
2022-10-26T14:04:58Z,42.805,6.029,13.3029,4.60092,2470.624,2022-10-26T16:06:54Z
2022-10-26T14:08:01Z,42.805,6.029,13.3026,4.60081,2470.577,2022-10-26T16:09:57Z
2022-10-26T14:11:04Z,42.805,6.029,13.3021,4.60087,2470.577,2022-10-26T16:13:00Z
2022-10-26T14:14:07Z,42.805,6.029,13.3023,4.60077,2470.577,2022-10-26T16:16:04Z
2022-10-26T14:17:10Z,42.805,6.029,13.3024,4.60074,2470.6,2022-10-26T16:19:07Z
2022-10-26T14:20:13Z,42.805,6.029,13.3028,4.60080,2470.591,2022-10-26T16:22:10Z
2022-10-26T14:23:16Z,42.805,6.029,13.3017,4.60074,2470.591,2022-10-26T16:25:13Z
2022-10-26T14:26:20Z,42.805,6.029,13.3020,4.60092,2470.591,2022-10-26T16:28:16Z
2022-10-26T14:29:23Z,42.805,6.029,13.3020,4.60079,2470.577,2022-10-26T16:31:19Z
2022-10-26T14:32:26Z,42.805,6.029,13.3021,4.60086,2470.577,2022-10-26T16:34:22Z
2022-10-26T14:35:29Z,42.805,6.029,13.3024,4.60087,2470.577,2022-10-26T16:37:25Z
2022-10-26T14:38:32Z,42.805,6.029,13.3024,4.60079,2470.614,2022-10-26T16:40:28Z
2022-10-26T14:41:35Z,42.805,6.029,13.3019,4.60081,2470.6,2022-10-26T16:43:31Z
2022-10-26T14:44:38Z,42.805,6.029,13.3027,4.60084,2470.577,2022-10-26T16:46:34Z
2022-10-26T14:47:41Z,42.805,6.029,13.3016,4.60077,2470.624,2022-10-26T16:49:37Z
2022-10-26T14:50:44Z,42.805,6.029,13.3020,4.60078,2470.637,2022-10-26T16:52:41Z
2022-10-26T14:53:47Z,42.805,6.029,13.3024,4.60079,2470.6,2022-10-26T16:55:44Z
2022-10-26T14:56:50Z,42.805,6.029,13.3019,4.60077,2470.614,2022-10-26T16:58:47Z
2022-10-26T14:59:53Z,42.805,6.029,13.3027,4.60096,2470.6,2022-10-26T17:01:50Z
2022-10-26T15:02:57Z,42.805,6.029,13.3019,4.60081,2470.6,2022-10-26T17:04:53Z